TimeCDT,TemperatureF,Dew PointF,Humidity,Sea Level PressureIn,VisibilityMPH,Wind Direction,Wind SpeedMPH,Gust SpeedMPH,PrecipitationIn,Events,Conditions,WindDirDegrees,DateUTC
12:52 AM,39.9,34.0,79,29.71,10.0,WSW,9.2,-,N/A,,Clear,240,2014-03-10 05:52:00
1:52 AM,41.0,34.0,76,29.70,10.0,WSW,12.7,-,N/A,,Clear,250,2014-03-10 06:52:00
2:52 AM,37.9,33.1,83,29.72,10.0,West,11.5,-,N/A,,Clear,280,2014-03-10 07:52:00
3:52 AM,39.9,34.0,79,29.71,10.0,West,12.7,-,N/A,,Clear,280,2014-03-10 08:52:00
4:52 AM,37.9,33.1,83,29.71,10.0,West,10.4,-,N/A,,Clear,280,2014-03-10 09:52:00
5:52 AM,39.9,34.0,79,29.71,10.0,West,10.4,-,N/A,,Clear,270,2014-03-10 10:52:00
6:52 AM,35.1,33.1,92,29.72,10.0,WSW,10.4,-,N/A,,Clear,250,2014-03-10 11:52:00
7:52 AM,36.0,33.1,89,29.73,10.0,West,9.2,-,N/A,,Clear,260,2014-03-10 12:52:00
8:52 AM,37.9,35.1,89,29.73,10.0,WSW,9.2,-,N/A,,Clear,240,2014-03-10 13:52:00
9:52 AM,44.1,39.0,82,29.73,10.0,WSW,8.1,-,N/A,,Clear,250,2014-03-10 14:52:00
10:52 AM,50.0,41.0,71,29.75,10.0,WNW,12.7,-,N/A,,Clear,300,2014-03-10 15:52:00
11:52 AM,52.0,43.0,71,29.75,10.0,WNW,9.2,-,N/A,,Clear,300,2014-03-10 16:52:00
12:52 PM,53.1,43.0,69,29.75,10.0,WNW,11.5,-,N/A,,Clear,300,2014-03-10 17:52:00
1:52 PM,53.1,44.1,71,29.73,10.0,NW,9.2,-,N/A,,Clear,310,2014-03-10 18:52:00
2:52 PM,54.0,45.0,72,29.71,10.0,NW,6.9,-,N/A,,Clear,320,2014-03-10 19:52:00
3:52 PM,55.0,46.9,74,29.70,10.0,West,11.5,-,N/A,,Clear,270,2014-03-10 20:52:00
4:52 PM,54.0,46.0,75,29.70,10.0,WNW,6.9,-,N/A,,Clear,300,2014-03-10 21:52:00
5:52 PM,51.1,44.1,77,29.69,10.0,North,4.6,-,N/A,,Clear,360,2014-03-10 22:52:00
6:52 PM,46.9,44.1,90,29.72,10.0,NNW,4.6,-,N/A,,Clear,330,2014-03-10 23:52:00
7:52 PM,41.0,41.0,100,29.74,10.0,Calm,Calm,-,N/A,,Clear,0,2014-03-11 00:52:00
8:52 PM,39.0,39.0,100,29.75,10.0,NNW,3.5,-,N/A,,Clear,340,2014-03-11 01:52:00
9:52 PM,39.0,39.0,100,29.73,10.0,NNE,5.8,-,N/A,,Clear,20,2014-03-11 02:52:00
10:52 PM,36.0,36.0,100,29.72,6.0,NE,5.8,-,N/A,,Scattered Clouds,50,2014-03-11 03:52:00
11:25 PM,36.0,36.0,100,29.68,2.5,NE,8.1,-,N/A,,Scattered Clouds,40,2014-03-11 04:25:00
11:40 PM,37.0,37.0,100,29.68,1.8,NE,10.4,-,N/A,,Scattered Clouds,40,2014-03-11 04:40:00
11:50 PM,37.4,37.4,100,29.68,2.5,NE,8.1,-,N/A,,Mostly Cloudy,40,2014-03-11 04:50:00
11:52 PM,36.0,36.0,100,29.70,3.0,NE,8.1,-,N/A,,Scattered Clouds,40,2014-03-11 04:52:00